Wind_Speed
21 21 22 23 23 24 25 26 27 28 29 29 29 30 31 31 32 34 35 35 35 35 35 35 35 36 36 36 35 34 34 34 34 33 34 34 34 33
20 21 22 22 23 24 25 27 28 28 28 29 29 30 31 31 31 32 33 34 35 35 36 36 36 36 37 36 36 36 36 35 36 36 35 35 35 34
20 21 22 23 23 24 25 26 27 28 29 29 29 29 30 31 32 33 33 34 35 36 36 36 35 36 37 37 37 37 37 36 37 37 36 36 36 36
20 21 21 21 22 23 24 25 26 27 27 27 28 29 30 31 33 33 34 34 35 36 36 36 36 36 37 38 37 37 37 36 36 37 37 37 37 37
21 21 21 21 21 22 22 23 24 26 27 28 28 29 30 31 32 33 34 34 35 35 35 36 35 36 36 37 38 38 38 38 38 38 37 37 38 38
21 21 20 20 21 21 22 22 24 25 26 27 28 29 30 31 31 32 33 34 34 34 35 35 35 35 36 37 38 39 39 39 39 39 39 39 39 39
21 21 20 20 20 21 22 23 24 25 26 27 28 29 29 30 30 32 33 34 34 34 35 35 35 35 35 36 37 38 39 40 39 39 39 39 39 39
21 21 21 21 21 21 22 23 24 25 26 26 27 28 29 30 30 31 32 33 34 35 35 35 36 36 35 35 36 37 38 39 39 40 40 40 39 39
21 21 21 20 20 20 20 21 22 22 24 25 26 27 28 28 29 31 31 32 33 34 35 35 35 35 36 36 36 36 37 38 39 39 39 39 39 39
21 20 20 20 19 19 20 20 20 21 23 24 25 25 25 26 27 28 29 30 31 32 32 33 34 35 35 36 36 35 36 37 38 39 39 39 39 39
21 20 20 20 21 22 21 21 20 20 21 22 23 24 24 24 25 26 27 28 29 30 32 33 34 34 34 35 35 35 35 35 35 35 36 37 37 38
20 20 20 20 21 21 21 20 20 21 21 21 22 22 22 23 24 25 26 27 28 29 30 31 32 32 32 32 32 33 33 33 33 34 35 36 37 37
20 20 19 19 20 20 20 19 20 20 20 20 21 21 22 23 23 24 24 25 25 26 27 29 29 29 29 29 29 30 29 29 31 32 33 34 35 36
21 21 20 20 21 21 21 20 20 20 20 20 21 21 21 21 22 23 23 23 24 24 24 26 26 26 27 27 27 27 27 28 29 30 31 32 33 34
21 22 21 21 22 22 22 21 21 21 21 21 21 21 20 20 20 21 21 21 21 22 22 22 23 24 24 25 25 26 27 28 28 28 29 30 32 33
22 22 22 22 23 23 23 23 22 22 22 22 21 21 20 20 20 19 19 19 19 20 20 21 21 22 23 24 24 24 26 27 28 28 28 29 30 31
23 23 23 23 24 24 24 23 23 23 23 22 22 21 20 19 19 19 19 19 19 19 19 19 19 20 22 23 23 23 24 25 26 27 27 27 28 28
24 24 24 24 25 25 24 23 23 22 22 21 21 20 19 19 19 19 20 19 19 19 19 19 18 18 19 20 22 22 23 24 25 25 26 26 26 26
24 24 23 24 24 23 22 22 22 21 20 20 19 19 18 18 18 18 18 18 19 19 19 19 19 19 19 19 19 20 21 23 24 24 25 25 25 26
23 22 22 22 21 21 21 20 20 19 19 18 17 17 17 17 17 17 18 19 19 19 20 20 20 20 20 20 20 21 21 21 22 23 24 24 24 25
22 22 21 21 21 21 20 20 19 19 18 17 16 16 16 17 17 17 17 17 17 18 18 18 19 20 21 21 20 20 21 21 22 23 23 24 24 24
21 21 21 21 20 20 20 20 20 19 18 17 16 16 16 16 15 15 15 15 15 15 16 16 17 18 19 19 20 20 20 20 21 22 22 22 23 23
21 21 21 21 21 20 20 20 19 19 18 17 17 16 16 15 14 14 13 13 13 13 13 14 15 15 17 17 18 19 19 19 20 21 22 22 23 23
Wind_Direction
283 282 280 277 272 268 265 263 261 259 259 256 255 254 254 253 251 250 250 251 252 252 253 254 254 254 252 251 249 249 248 247 246 246 246 246 246 246
286 284 283 280 276 272 268 265 263 261 259 257 256 256 255 255 254 253 251 251 251 251 252 252 252 252 252 250 250 250 249 248 247 246 245 246 246 247
291 288 286 284 279 275 271 268 265 262 260 258 256 256 256 257 257 256 254 253 252 252 253 252 252 252 251 249 249 250 249 248 247 246 246 247 247 247
295 296 292 287 283 279 275 271 267 264 261 259 257 257 257 256 256 256 255 255 254 253 253 253 253 253 253 251 250 250 249 249 248 247 248 248 248 248
299 298 295 289 285 282 278 274 270 267 264 262 261 260 260 259 258 257 256 256 255 253 252 252 253 253 254 253 251 250 250 250 249 248 248 248 249 249
303 299 295 291 288 284 280 276 272 270 268 266 265 263 262 261 260 258 257 257 255 254 254 254 254 255 255 254 252 251 250 250 249 248 248 248 248 249
304 300 296 294 291 285 281 279 275 273 271 270 269 267 265 264 263 260 258 256 255 255 255 255 254 255 255 254 252 251 250 251 250 249 249 248 248 248
304 302 297 295 294 290 287 283 279 276 274 273 270 268 268 266 264 261 259 257 257 256 256 256 255 254 253 252 251 251 251 250 250 250 249 249 248 247
306 304 300 296 294 293 291 289 285 281 280 277 273 271 268 266 265 263 261 260 259 258 257 256 254 253 253 253 252 251 251 252 251 249 247 247 248 248
307 305 303 300 298 296 293 291 288 285 282 279 276 273 271 269 268 266 264 262 260 258 258 256 255 254 254 253 251 250 251 253 252 250 249 249 248 247
308 306 302 300 299 299 296 294 292 289 286 282 279 277 274 272 270 268 266 263 261 259 257 257 256 254 253 252 250 249 250 251 251 250 249 249 248 248
311 308 306 304 303 301 300 298 295 293 291 287 283 280 278 275 272 269 267 264 262 260 259 258 257 255 253 252 250 249 250 251 249 249 249 249 249 248
312 311 308 307 305 304 302 299 296 294 292 290 288 284 281 277 273 268 268 266 263 260 259 257 256 254 253 250 249 248 249 249 248 247 248 249 249 249
311 310 308 307 306 305 304 300 296 294 292 291 290 286 281 277 273 269 269 266 262 259 259 256 255 254 252 251 250 250 250 250 250 250 250 249 249 248
309 309 308 307 306 305 304 302 298 295 293 291 290 287 283 280 276 273 271 268 265 263 263 261 257 255 253 252 251 251 252 252 252 253 252 251 251 251
311 310 309 309 309 308 306 303 300 298 296 295 292 290 286 281 279 276 273 270 268 265 265 262 257 256 254 253 253 252 252 251 252 253 253 252 252 251
311 310 310 310 309 309 307 304 301 300 299 295 291 289 285 279 276 275 273 271 268 266 264 265 263 261 259 256 255 253 254 253 253 254 254 255 255 253
310 310 309 309 310 310 309 306 304 302 299 297 294 290 285 279 276 275 273 270 268 267 264 263 262 261 260 258 257 257 257 255 254 253 252 254 256 255
310 310 310 311 312 313 313 311 308 305 304 300 295 291 287 283 279 276 274 271 268 265 263 262 262 262 260 259 259 260 260 257 254 253 254 255 256 256
311 312 313 314 314 315 316 316 313 310 308 305 300 295 289 285 282 279 277 273 268 266 265 262 260 262 262 261 261 261 262 259 255 254 254 256 256 256
312 313 314 315 314 315 316 316 315 313 310 305 301 297 293 288 283 280 278 274 269 267 268 266 264 261 260 260 260 260 261 259 257 258 258 257 257 258
315 314 316 316 315 314 315 315 314 313 312 309 304 300 297 294 288 283 280 277 272 268 268 267 265 261 259 259 258 257 259 261 260 259 260 259 259 260
316 315 315 317 316 314 314 314 314 313 312 311 309 305 302 298 292 287 283 278 273 270 269 268 267 263 261 260 261 260 258 257 257 258 261 264 264 263
Height
5738 5737 5736 5735 5734 5734 5734 5734 5736 5736 5738 5739 5740 5741 5743 5745 5747 5749 5752 5754 5757 5759 5761 5763 5765 5767 5769 5772 5773 5776 5778 5781 5783 5786 5788 5791 5793 5795
5732 5731 5730 5729 5728 5727 5727 5726 5727 5728 5729 5731 5731 5733 5734 5736 5738 5740 5742 5744 5747 5749 5752 5754 5756 5758 5760 5762 5765 5767 5769 5771 5774 5776 5779 5782 5784 5787
5727 5725 5724 5722 5721 5720 5719 5719 5719 5719 5721 5722 5723 5724 5725 5727 5729 5731 5733 5735 5737 5739 5742 5744 5746 5748 5750 5753 5755 5757 5760 5762 5764 5767 5769 5772 5774 5777
5722 5719 5717 5715 5714 5712 5711 5711 5711 5711 5712 5714 5714 5715 5716 5718 5719 5721 5723 5725 5727 5729 5731 5734 5736 5738 5740 5742 5745 5747 5750 5752 5755 5757 5759 5762 5765 5767
5716 5714 5712 5709 5708 5706 5704 5704 5703 5703 5704 5705 5706 5706 5707 5708 5710 5712 5713 5715 5717 5719 5721 5723 5726 5728 5730 5732 5734 5737 5739 5742 5744 5747 5749 5751 5754 5757
5711 5708 5706 5704 5702 5700 5698 5697 5696 5696 5696 5696 5697 5697 5698 5699 5700 5702 5704 5705 5707 5709 5711 5713 5716 5717 5720 5722 5724 5726 5728 5731 5733 5736 5738 5740 5743 5746
5706 5703 5700 5698 5695 5693 5691 5690 5689 5689 5688 5688 5688 5688 5689 5690 5691 5692 5693 5695 5697 5698 5701 5703 5705 5707 5709 5711 5713 5715 5717 5720 5722 5725 5727 5729 5732 5734
5700 5697 5694 5692 5690 5687 5685 5683 5682 5681 5680 5680 5679 5679 5680 5680 5681 5682 5683 5685 5687 5689 5690 5692 5694 5696 5698 5700 5702 5704 5706 5709 5711 5713 5715 5718 5721 5723
5694 5691 5689 5686 5684 5682 5679 5677 5675 5674 5673 5672 5671 5670 5670 5671 5671 5672 5673 5674 5676 5678 5680 5682 5683 5685 5687 5689 5690 5692 5694 5697 5699 5701 5703 5706 5709 5712
5689 5686 5683 5681 5678 5676 5674 5671 5669 5667 5666 5665 5664 5663 5662 5662 5662 5663 5664 5665 5666 5668 5669 5671 5673 5674 5676 5678 5679 5681 5683 5685 5687 5689 5692 5695 5697 5700
5684 5681 5678 5676 5673 5670 5668 5665 5663 5661 5659 5657 5656 5655 5655 5654 5654 5654 5655 5656 5657 5658 5659 5660 5662 5663 5665 5666 5668 5670 5672 5673 5675 5678 5680 5683 5686 5689
5679 5676 5673 5671 5668 5665 5662 5660 5657 5655 5653 5651 5650 5649 5648 5647 5647 5646 5646 5647 5647 5649 5650 5651 5652 5653 5654 5656 5657 5659 5661 5663 5665 5668 5670 5673 5675 5678
5675 5672 5669 5666 5663 5660 5657 5654 5652 5650 5648 5646 5644 5642 5641 5640 5639 5639 5639 5639 5639 5640 5641 5642 5642 5643 5645 5647 5648 5650 5651 5653 5656 5658 5660 5662 5665 5667
5670 5667 5664 5661 5658 5655 5652 5649 5647 5644 5642 5640 5638 5636 5635 5634 5633 5632 5631 5631 5631 5632 5632 5633 5633 5635 5636 5638 5639 5641 5642 5644 5646 5648 5650 5652 5654 5656
5665 5662 5659 5656 5652 5649 5646 5643 5641 5638 5636 5634 5632 5630 5629 5627 5626 5625 5625 5624 5624 5624 5624 5625 5626 5627 5628 5630 5631 5633 5634 5636 5638 5639 5641 5642 5645 5647
5660 5656 5653 5650 5647 5644 5640 5637 5635 5632 5629 5627 5625 5624 5622 5621 5620 5619 5619 5618 5618 5618 5618 5618 5618 5619 5620 5622 5623 5625 5626 5628 5629 5631 5632 5633 5635 5637
5654 5651 5648 5644 5641 5638 5634 5631 5628 5625 5623 5621 5619 5617 5616 5614 5614 5613 5612 5612 5612 5612 5612 5612 5611 5612 5613 5614 5616 5617 5618 5620 5621 5622 5624 5625 5627 5628
5649 5646 5642 5638 5635 5632 5628 5625 5622 5619 5617 5614 5612 5610 5609 5608 5607 5606 5606 5605 5605 5605 5605 5605 5606 5606 5607 5607 5609 5610 5611 5612 5613 5614 5615 5617 5618 5619
5643 5640 5636 5633 5629 5625 5622 5619 5616 5613 5610 5608 5606 5604 5602 5601 5601 5600 5599 5599 5599 5599 5599 5599 5599 5600 5600 5601 5602 5602 5603 5604 5605 5606 5607 5609 5610 5611
5637 5634 5631 5627 5624 5620 5617 5614 5610 5607 5604 5602 5600 5598 5597 5595 5594 5594 5593 5593 5592 5592 5593 5593 5593 5593 5593 5594 5595 5596 5596 5596 5597 5598 5600 5601 5602 5603
5632 5628 5625 5622 5619 5615 5612 5609 5606 5603 5600 5597 5595 5593 5591 5590 5589 5588 5587 5586 5586 5586 5586 5586 5586 5586 5586 5587 5588 5589 5589 5589 5590 5591 5592 5593 5594 5595
5626 5623 5620 5617 5614 5611 5607 5604 5601 5598 5595 5592 5590 5588 5586 5584 5583 5582 5581 5580 5580 5580 5580 5580 5579 5579 5579 5580 5581 5582 5583 5583 5583 5583 5584 5585 5586 5587
5621 5618 5615 5612 5609 5606 5603 5599 5596 5593 5590 5588 5585 5583 5581 5579 5578 5577 5576 5575 5575 5575 5574 5574 5574 5573 5573 5574 5574 5575 5576 5576 5576 5577 5578 5578 5578 5579